sat.trackr.live / text

‹ back to catalog

STARLINK-2433

NORAD 47841 · 2021-018BG

PAYLOAD ACTIVE UNKNOWN

§ Identity

Operator
Country
US
Launch date
2021-03-11
Launch site
AFETR
Launch vehicle
Mass (kg)
RCS (m²)

Purposes: comms

External: N2YO · Heavens-Above · Gunter

§ Orbital elements

Epoch: 2026-05-25T00:09:35.562240Z

Period
94.01 min
Inclination
53.1592°
Eccentricity
0.0001345
Mean motion
15.31704620 rev/d
Perigee alt
469.8 km
Apogee alt
471.6 km
Semi-major
6,848.9 km
B*
6.2427e-5
RAAN
244.1058°
Arg perigee
83.2652°
Mean anomaly
276.8503°
Rev number
28,845

§ Raw data

STARLINK-24331 47841U 21018BG  26145.00666160  .00001573  00000+0  62427-4 0  99992 47841  53.1592 244.1058 0001345  83.2652 276.8503 15.31704620288451

JSON: /api/v1/satellites/47841 · /tle

For live sub-satellite position, see the globe view (requires WebGL).

§ Visibility from observer

Set your observer location to see the next 7 days of passes ≥ 10°. The values pass through the URL so the page stays shareable.

No JS? Fill the form by hand. The geolocation button needs JavaScript.